EW1557 Weather Reports


time (UTC)temp
C
wind
direction
speed
KPH
gust
KPH
rain 1hr
cm
rain 24hr
cm
rain mn
cm
humidity
%
barometer
mb
20260507150006 20 246 0.0 0.0 0.00 0.05 0.05 1 1012.8
20260507144503 20 235 0.0 0.0 0.00 0.05 0.05 1 1011.9
20260507143106 20 283 0.0 0.0 0.00 0.05 0.05 1 1011.5
20260507141552 19 283 0.0 3.2 0.00 0.05 0.05 1 1011.1
20260507140048 19 323 0.0 3.2 0.03 0.05 0.05 1 1011.4
20260507134544 18 323 0.0 1.6 0.03 0.05 0.05 1 1012.5
20260507133046 18 228 0.0 3.2 0.03 0.05 0.05 1 1012.4
20260507131545 18 223 0.0 1.6 0.03 0.05 0.05 1 1012.9
20260507130035 18 223 0.0 4.8 0.00 0.03 0.03 1 1014.2
20260507124527 18 293 0.0 1.6 0.00 0.03 0.03 1 1011.7
20260507123023 -17 0.0 0.0 0.00 0.03 0.03 1010.7
20260507121519 -17 0.0 0.0 0.00 0.03 0.03 1010.4
20260507120015 -17 0.0 0.0 0.00 0.03 0.03 1009.4
20260507114511 -17 0.0 0.0 0.00 0.03 0.03 1011.6
20260507113006 -17 0.0 0.0 0.00 0.03 0.03 1013.0
20260507111503 -17 0.0 0.0 0.03 0.03 0.03 1012.7
20260507104601 21 252 0.0 4.8 0.03 0.03 0.03 1 1013.5
20260507103117 21 252 0.0 0.0 0.03 0.03 0.03 1 1013.5
20260507101545 21 252 0.0 0.0 0.00 0.00 0.00 1 1014.1
20260507100052 21 252 0.0 0.0 0.00 0.00 0.00 1 1014.7
20260507094538 21 252 0.0 0.0 0.00 0.00 0.00 1 1014.2
20260507093032 21 252 0.0 0.0 0.00 0.00 0.00 1 1014.4
20260507091536 22 252 0.0 0.0 0.00 0.00 0.00 1 1013.6
20260507090027 22 252 0.0 0.0 0.00 0.00 0.00 1 1013.4
20260507084535 22 252 0.0 0.0 0.00 0.00 0.00 1 1012.7
20260507083014 22 252 0.0 0.0 0.00 0.00 0.00 1 1012.4
20260507081513 22 252 0.0 0.0 0.00 0.00 0.00 1 1012.2
20260507080006 22 252 0.0 0.0 0.00 0.00 0.00 1 1012.0
20260507074501 22 252 0.0 0.0 0.00 0.00 0.00 1 1011.7
20260507073057 23 252 0.0 0.0 0.00 0.00 0.00 1 1011.4
20260507071554 23 252 0.0 0.0 0.00 0.00 0.00 1 1012.2
20260507064551 23 174 0.0 0.0 0.00 0.00 0.00 1 1012.2
20260507063040 23 246 0.0 0.0 0.00 0.00 0.00 1 1012.3
20260507061535 23 296 0.0 0.0 0.00 0.00 0.00 1 1012.7
20260507060038 23 221 0.0 0.0 0.00 0.00 0.00 1 1012.8
20260507054528 23 309 0.0 0.0 0.00 0.00 0.00 1 1012.8
20260507053025 23 17 0.0 0.0 0.00 0.00 0.00 1 1013.1
20260507051520 23 108 0.0 0.0 0.00 0.00 0.00 1 1013.5
20260507050035 23 66 0.0 0.0 0.00 0.00 0.00 1 1013.7
20260507044511 23 71 0.0 0.0 0.00 0.00 0.00 1 1013.5
20260507043007 23 273 0.0 0.0 0.00 0.00 0.00 1 1013.5
20260507041502 23 339 0.0 0.0 0.00 0.00 0.00 1 1013.8
20260507040057 23 284 0.0 0.0 0.00 0.00 0.00 1 1013.8
20260507034603 23 83 0.0 0.0 0.00 0.00 0.00 1 1013.6
20260507033057 23 243 0.0 0.0 0.00 0.00 0.00 1 1013.6
20260507031555 23 192 0.0 0.0 0.00 0.00 0.00 1 1013.6
20260507030056 23 238 0.0 0.0 0.00 0.00 0.00 1 1013.7
20260507024556 23 213 0.0 0.0 0.00 0.00 0.00 1 1013.2
20260507023049 23 330 0.0 0.0 0.00 0.00 0.00 1 1013.0
20260507021557 23 159 0.0 0.0 0.00 0.00 0.00 1 1013.1
20260507020054 23 285 0.0 0.0 0.00 0.00 0.00 1 1013.1
20260507014542 23 194 0.0 0.0 0.00 0.00 0.00 1 1013.4
20260507013036 23 338 0.0 0.0 0.00 0.00 0.00 1 1013.7
20260507011527 23 71 0.0 0.0 0.00 0.00 0.00 1 1013.9
20260507010031 23 265 0.0 0.0 0.00 0.00 0.00 1 1014.0
20260507004518 23 327 0.0 0.0 0.00 0.00 0.00 1 1014.0
20260507003014 24 98 0.0 0.0 0.00 0.00 0.00 1 1013.9
20260507001508 24 289 0.0 0.0 0.00 0.00 0.00 1 1013.9
20260507000007 25 273 0.0 0.0 0.00 0.00 0.00 1 1013.5
20260506234623 25 246 0.0 0.0 0.00 0.00 0.00 1 1013.4
20260506233056 25 53 0.0 0.0 0.00 0.00 0.00 1 1013.5
20260506231555 25 259 0.0 0.0 0.00 0.00 0.00 1 1013.4
20260506230101 26 275 1.6 6.4 0.00 0.00 0.00 1 1013.3
20260506224551 26 269 1.6 9.7 0.00 0.00 0.00 1 1013.2
20260506223045 26 355 1.6 8.0 0.00 0.00 0.00 1 1013.3
20260506221551 26 272 0.0 8.0 0.00 0.00 0.00 1 1013.7
20260506220043 26 69 0.0 4.8 0.00 0.00 0.00 1 1013.6
20260506214532 26 350 1.6 11.3 0.00 0.00 0.00 1 1013.4
20260506213028 26 75 1.6 8.0 0.00 0.00 0.00 1 1013.4
20260506211537 27 296 1.6 4.8 0.00 0.00 0.00 1 1013.6
20260506210031 27 257 1.6 6.4 0.00 0.00 0.00 1 1013.9
20260506204521 27 271 0.0 6.4 0.00 0.00 0.00 1 1013.9
20260506203012 27 283 1.6 9.7 0.00 0.00 0.00 1 1014.0
20260506201510 27 263 1.6 6.4 0.00 0.00 0.00 1 1014.0
20260506200009 27 336 1.6 8.0 0.00 0.00 0.00 1 1014.3
20260506194559 27 123 1.6 11.3 0.00 0.00 0.00 1 1014.3
20260506193057 27 288 1.6 11.3 0.00 0.00 0.00 1 1014.4
20260506191555 28 240 1.6 9.7 0.00 0.00 0.00 1 1014.6
20260506190046 28 265 3.2 8.0 0.00 0.00 0.00 1 1014.8
20260506184541 28 101 0.0 9.7 0.00 0.00 0.00 1 1015.0
20260506183036 29 296 1.6 8.0 0.00 0.00 0.00 1 1015.1
20260506181541 28 281 0.0 0.0 0.00 0.00 0.00 1 1015.1
20260506180027 29 68 0.0 0.0 0.00 0.00 0.00 1 1015.3
20260506174523 28 283 0.0 0.0 0.00 0.00 0.00 1 1015.6
20260506173026 28 276 0.0 3.2 0.00 0.00 0.00 1 1015.9
20260506171516 27 288 0.0 4.8 0.00 0.00 0.00 1 1016.3
20260506170009 27 341 0.0 0.0 0.00 0.00 0.00 1 1016.3
20260506164507 26 227 0.0 0.0 0.00 0.00 0.00 1 1016.6
20260506163101 26 288 0.0 0.0 0.00 0.00 0.00 1 1016.6
20260506161556 26 284 0.0 0.0 0.00 0.00 0.00 1 1016.7
20260506160052 26 256 0.0 0.0 0.00 0.00 0.00 1 1016.8
20260506154606 25 316 0.0 4.8 0.00 0.00 0.00 1 1016.9
20260506153042 25 294 3.2 9.7 0.00 0.00 0.00 1 1016.9
20260506151538 25 302 0.0 4.8 0.00 0.00 0.00 1 1017.0